Location: Red Rock Farm
(35.2100°N, 97.2200°W)
Time: 15:38:39
(UTC-05:00)

ISS - All Passes

Search period start: 26 May 2017 00:00
Search period end: 05 June 2017 00:00
Orbit: 402 x 408 km, 51.6° (Epoch: 27 May)

Date Brightness Start Highest point End Pass type
(mag) Time Alt. Az. Time Alt. Az. Time Alt. Az.
26 May - 04:14:05 10° NW 04:17:13 43° NE 04:20:21 10° ESE visible
26 May - 05:51:38 10° W 05:53:25 14° SW 05:55:13 10° SSW visible
26 May - 20:51:33 10° SW 20:54:51 82° SE 20:58:09 10° NE daylight
26 May - 22:30:00 10° WNW 22:31:42 13° NNW 22:33:25 10° N visible
27 May - 03:22:22 10° NNW 03:25:06 24° NNE 03:27:49 10° E visible
27 May - 04:58:42 10° WNW 05:01:35 29° SW 05:04:26 10° SSE visible
27 May - 19:59:50 10° SSW 20:02:53 36° SE 20:05:56 10° ENE daylight
27 May - 21:36:52 10° W 21:39:27 21° NNW 21:42:02 10° NNE visible
28 May - 02:30:52 10° N 02:32:51 15° NNE 02:34:50 10° ENE visible
28 May - 04:06:23 10° NW 04:09:38 64° SW 04:12:51 10° SE night (unlit)
28 May - 19:08:44 10° S 19:10:59 17° SE 19:13:16 10° E daylight
28 May - 20:44:11 10° WSW 20:47:16 36° NW 20:50:21 10° NNE daylight
29 May - 03:14:22 10° NW 03:17:36 57° NE 03:20:49 10° ESE night (unlit)
29 May - 04:52:59 10° WSW 04:53:41 11° SW 04:54:24 10° SW night (unlit)
29 May - 19:51:52 10° SW 19:55:10 75° NW 19:58:28 10° NE daylight
29 May - 21:30:57 10° NW 21:32:08 11° NNW 21:33:19 10° N visible
30 May - 02:22:32 10° NNW 02:25:28 29° NE 02:28:22 10° E visible
30 May - 03:59:13 10° WNW 04:01:50 22° SW 04:04:25 10° S night (unlit)
30 May - 18:59:57 10° SSW 19:03:08 48° SE 19:06:20 10° ENE daylight
30 May - 20:37:30 10° WNW 20:39:48 17° NNW 20:42:07 10° NNE daylight
31 May - 01:30:54 10° NNW 01:33:13 18° NNE 01:35:31 10° ENE visible
31 May - 03:06:43 10° WNW 03:09:53 47° SW 03:13:02 10° SSE night (unlit)
31 May - 18:08:31 10° S 18:11:10 23° SE 18:13:49 10° ENE daylight
31 May - 19:44:37 10° W 19:47:33 29° NW 19:50:29 10° NNE daylight
01 Jun - 00:39:40 10° N 00:40:53 12° NNE 00:42:05 10° NE visible
01 Jun - 02:14:34 10° NW 02:17:50 77° NE 02:21:06 10° SE night (unlit)
01 Jun - 17:18:18 10° SE 17:19:16 11° SE 17:20:15 10° ESE daylight
01 Jun - 18:52:08 10° WSW 18:55:23 56° NW 18:58:37 10° NE daylight
02 Jun - 01:22:37 10° NNW 01:25:42 36° NE 01:28:46 10° ESE visible
02 Jun - 02:59:46 10° W 03:01:58 17° SW 03:04:08 10° S night (unlit)
02 Jun - 18:00:01 10° SW 18:03:16 67° SE 18:06:33 10° NE daylight
02 Jun - 19:38:06 10° WNW 19:40:04 15° NNW 19:42:02 10° N daylight
03 Jun - 00:30:52 10° NNW 00:33:27 21° NNE 00:36:02 10° E visible
03 Jun - 02:06:59 10° WNW 02:10:01 35° SW 02:13:01 10° SSE night (unlit)
03 Jun - 17:08:20 10° SSW 17:11:15 29° SE 17:14:10 10° ENE daylight
03 Jun - 18:45:01 10° W 18:47:44 23° NNW 18:50:29 10° NNE daylight
03 Jun - 23:39:22 10° N 23:41:06 13° NNE 23:42:49 10° ENE visible
04 Jun - 01:14:40 10° NW 01:17:58 80° SW 01:21:13 10° SE visible
04 Jun - 16:17:24 10° SSE 16:19:17 14° SE 16:21:11 10° E daylight
04 Jun - 17:52:21 10° WSW 17:55:29 42° NW 17:58:39 10° NE daylight
